Regional Weather Roundup
Issued by NWS New Orleans/Baton Rouge, LA

Current Version | Previous Version | Text Only | Print | Product List | Glossary On
Versions: 1 2 3 4 5 6 7 8 9 10 11 12 13 14 15 16 17 18 19 20 21 22 23 24 25 26 27
000
ASUS44 KLIX 301212
RWRLIX
NEW ORLEANS REGIONAL WEATHER ROUNDUP
NATIONAL WEATHER SERVICE NEW ORLEANS LA
700 AM CDT FRI SEP 30 2022

NOTE: "FAIR" INDICATES FEW OR NO CLOUDS BELOW 12,000 FEET WITH NO
      SIGNIFICANT WEATHER AND/OR OBSTRUCTIONS TO VISIBILITY.
      SKY/WX - SKY CONDITION AND SIGNIFICANT WEATHER.
      TMP - AIR TEMPERATURE.     DP    - DEWPOINT TEMPERATURE.
      RH  - RELATIVE HUMIDITY.   PRES  - PRESSURE.
      HI  - HEAT INDEX.          WCI   - WIND CHILL INDEX.

*  THESE STATIONS ARE NOT NWS OR FAA STATIONS AND ARE NOT UNDER
   NWS QUALITY CONTROL.

LAZ038-048-061-063-065>067-069-076-077-301300-
SOUTHEAST LOUISIANA

CITY           SKY/WX    TMP DP  RH WIND       PRES   REMARKS
N.O. INTL ARPT CLEAR     66  52  60 NE7       30.01R
6HR MIN TEMP:  66; 6HR MAX TEMP:  69;

N.O. DWNTWN HE FAIR      63  50  62 NE3       30.02R
6HR MIN TEMP:  63; 6HR MAX TEMP:  68;

N.O. LAKEFRONT CLEAR     65  52  62 NE20        N/A
6HR MIN TEMP:  65; 6HR MAX TEMP:  69;

RESERVE*         N/A     52  48  87 N5        30.03R
SLIDELL        CLEAR     49  46  90 N5        30.01R
6HR MIN TEMP:  49; 6HR MAX TEMP:  55;

BATON ROUGE    CLEAR     52  47  83 N5        30.04R
6HR MIN TEMP:  52; 6HR MAX TEMP:  57;

BOOTHVILLE*    CLEAR     72  60  67 N12       29.98R
BELLE CHASSE*  PTCLDY    53  52  96 NE3       29.99R
6HR MIN TEMP:  53; 6HR MAX TEMP:  65;

BOGALUSA*      FAIR      49  46  90 CALM      30.03R
6HR MIN TEMP:  49; 6HR MAX TEMP:  54;

GALLIANO*      CLEAR     59  52  76 N7        30.00R
6HR MIN TEMP:  54; 6HR MAX TEMP:  66;

NEW ROADS*     FAIR      51  47  86 NW3       30.06R
6HR MIN TEMP:  49; 6HR MAX TEMP:  54;

GONZALES*      FAIR      54  48  82 N5        30.02R
6HR MIN TEMP:  53; 6HR MAX TEMP:  59;

HAMMOND*       CLEAR     50  46  87 CALM      30.03R
HOUMA*         CLEAR     55  50  82 N6        30.01R

$$

MSZ070-077-080>082-301300-
SOUTHERN MISSISSIPPI

CITY           SKY/WX    TMP DP  RH WIND       PRES   REMARKS
MCCOMB         CLEAR     53  45  74 N7        30.05R
6HR MIN TEMP:  52; 6HR MAX TEMP:  55;

GULFPORT       CLEAR     55  47  74 N6        30.00R
6HR MIN TEMP:  54; 6HR MAX TEMP:  60;

BILOXI         CLEAR     56  47  73 NE7       29.98R
6HR MIN TEMP:  55; 6HR MAX TEMP:  60;

PASCAGOULA     MOCLDY    54  49  83 N3        30.00R
6HR MIN TEMP:  53; 6HR MAX TEMP:  56;


$$

COASTAL OBSERVATIONS
LAKE AND NEARSHORE STATIONS

STATION/POSITION TIME  SKY/WX   TEMP    WIND        PRES    WAVE
                                AIR SEA DIR/SP/G            HT/PER
                 (UTC)          (F)     (DEG/KT/KT) (MB)    (FT/S)
GRAND ISLE       1130            65 73              1014.8
SOUTHWEST PASS   1130            72 78              1012.1
NEW CANAL        1130            66 80   50/ 15/ 17 1014.8
SHELL BEACH      1130            65 68   30/ 11/ 13 1015.4

OFFSHORE STATIONS

STATION/POSITION TIME  SKY/WX   TEMP    WIND        PRES    WAVE
                                AIR SEA DIR/SP/G            HT/PER
                 (UTC)          (F)     (DEG/KT/KT) (MB)    (FT/S)
64 S DAUPHIN ISL 1150            75 82   60/ 12/ 16 1013.7    6/ 7
SW PASS ENTRANCE 1130            72 81                N/A     3/ 4
LA OFFSHORE OIL  1110                                 N/A     3

$$




USA.gov is the U.S. government's official web portal to all federal, state and local government web resources and services.